Theta_e
299 298 298 298 298 299 300 300 300 300 300 301 300 302 302 302 302 301 302 303 303 304 304 305 305 306 306 306 308 308 312 311 311 313 315 315 313 316 321 323 324 327 328 331 332 332 329 327 327 329 334 331 330 329
298 299 299 299 299 299 300 300 301 302 301 301 300 301 302 302 302 301 303 303 305 303 304 304 305 303 304 305 305 306 309 311 311 314 312 313 315 314 317 323 322 325 328 330 329 330 332 328 331 329 327 330 328 329
298 298 299 299 299 299 300 300 301 302 302 301 301 300 302 302 302 302 303 304 304 305 306 308 307 307 305 306 306 308 309 308 309 311 313 314 315 313 314 316 317 321 321 323 325 328 329 326 326 327 327 328 329 328
299 299 299 299 299 299 299 300 301 301 301 302 301 301 301 301 302 302 303 304 304 305 307 307 307 308 308 308 308 307 308 308 309 309 311 313 314 313 313 313 314 315 317 321 323 325 327 327 327 328 328 329 329 329
298 298 298 299 299 299 299 300 300 301 301 301 302 301 301 301 301 301 305 304 305 305 306 306 307 308 307 307 307 307 307 308 308 309 311 312 310 312 312 312 312 312 314 317 324 319 319 327 326 326 328 329 330 329
297 297 298 298 299 299 300 300 300 301 302 302 302 302 301 301 301 304 306 305 304 303 305 308 307 308 308 308 307 307 307 308 308 308 309 308 309 312 312 313 312 311 311 312 315 315 316 320 326 327 328 329 329 329
297 297 298 298 299 300 300 299 300 301 301 301 301 302 301 301 301 305 305 304 302 304 305 307 309 308 308 308 308 307 308 307 307 308 308 309 308 309 311 312 311 311 311 312 311 311 313 319 323 324 326 328 326 328
296 297 298 298 298 299 299 299 300 301 302 301 302 301 301 302 302 305 306 304 303 305 306 308 309 308 308 309 309 309 308 307 308 308 308 309 308 308 312 310 309 309 309 310 312 312 312 314 319 321 324 325 326 328
295 296 298 298 298 298 299 299 301 301 302 302 305 305 306 307 307 307 304 303 304 306 306 307 308 311 308 308 307 309 308 309 308 310 309 309 310 311 309 309 308 309 309 309 311 312 313 312 316 319 320 323 324 326
294 296 298 298 298 298 299 300 301 302 305 305 307 309 308 307 305 306 307 307 306 306 306 307 308 310 309 307 307 309 309 309 310 309 308 310 311 309 308 308 308 309 309 309 311 313 313 314 317 317 317 317 321 323
294 295 298 298 298 299 299 301 301 302 306 306 306 307 306 307 308 308 308 309 308 309 308 308 309 311 308 309 308 306 309 310 311 311 311 311 310 312 309 309 309 308 309 309 311 312 313 315 316 317 316 316 317 320
293 295 298 298 299 299 299 301 301 303 306 305 306 306 308 309 308 308 309 308 309 310 308 311 309 309 309 306 305 304 307 308 310 310 313 313 314 313 312 313 310 309 309 310 310 312 313 314 315 316 316 317 317 317
293 294 296 299 299 299 299 301 301 304 307 309 308 308 307 307 310 309 309 310 312 309 309 310 311 309 309 306 302 305 307 310 305 310 312 312 308 310 312 314 313 311 310 310 310 311 312 314 314 314 315 316 317 322
293 294 297 300 299 299 299 301 301 305 308 308 308 308 309 309 310 311 311 311 309 309 309 310 310 310 310 307 306 308 309 306 311 313 312 308 303 307 308 312 313 314 314 315 312 311 312 313 313 315 315 315 317 319
293 294 302 302 300 299 300 301 304 308 308 308 308 311 310 308 308 308 307 308 308 309 309 311 310 310 311 309 308 308 310 311 310 310 306 302 301 302 304 305 305 306 310 313 315 315 315 315 314 316 316 316 317 318
293 295 304 299 298 299 301 302 309 308 307 308 308 309 308 308 308 308 307 307 307 308 308 309 309 309 310 309 309 308 308 308 306 302 303 307 305 305 304 303 304 305 308 312 313 314 315 318 317 319 316 318 318 319
293 297 294 294 298 299 305 308 308 307 307 307 308 308 308 307 308 307 306 307 307 308 311 309 309 309 309 309 310 305 307 304 304 307 309 310 310 309 308 309 308 306 307 309 312 314 315 318 321 321 323 324 325 329
293 293 293 294 298 299 308 308 307 307 307 308 308 307 306 307 307 307 306 307 307 308 309 311 309 309 310 310 310 309 306 308 308 309 310 309 310 310 310 309 309 308 307 308 308 310 316 317 317 321 322 318 323 325
293 293 293 296 299 301 309 308 307 308 307 307 307 306 306 307 307 307 307 306 307 308 308 309 310 310 310 310 309 308 309 309 309 308 309 310 310 310 311 309 310 309 308 309 309 309 311 313 316 317 317 319 320 321
293 293 297 298 301 307 307 307 307 308 308 307 306 307 306 307 306 307 307 306 307 308 309 309 310 309 308 310 308 308 309 309 308 307 309 308 310 310 310 310 311 310 310 310 310 310 310 312 313 312 313 315 317 318
293 302 302 303 306 308 307 306 306 307 307 307 306 306 306 306 306 306 307 307 307 308 308 307 308 308 308 309 310 309 310 310 309 308 308 308 308 309 310 310 311 310 310 310 310 311 311 311 312 313 313 313 313 313
293 299 299 302 305 306 307 306 306 306 305 306 306 306 307 308 308 307 306 307 308 308 307 307 306 307 309 309 310 309 309 309 309 309 308 308 308 308 309 308 309 310 310 310 311 311 311 311 312 312 312 313 314 315
299 301 302 305 305 305 304 305 307 307 307 306 306 307 307 307 307 306 307 307 307 307 307 306 306 308 307 306 309 308 308 309 308 308 309 309 308 307 307 307 308 308 309 309 309 310 310 310 311 311 312 312 313 313
298 301 303 304 305 305 304 306 307 307 306 307 306 306 305 305 306 307 307 307 307 306 306 305 305 306 307 308 307 306 307 308 308 307 308 308 309 308 307 306 307 307 308 308 308 308 309 310 310 311 311 311 311 312
298 298 302 303 304 305 305 305 305 306 306 306 305 305 306 304 306 306 306 305 306 306 306 305 304 305 306 307 307 306 307 307 308 308 307 307 306 308 308 307 307 307 307 307 307 307 308 309 309 310 310 310 311 311
300 299 303 304 304 305 305 304 305 305 305 304 305 304 304 306 306 305 305 304 305 305 304 304 305 304 305 306 306 306 305 306 306 307 307 306 306 307 307 307 307 307 306 307 307 307 307 307 308 308 309 310 310 311
300 301 302 302 303 304 305 304 304 305 305 305 304 303 304 303 303 303 304 305 304 303 302 302 303 303 304 303 304 304 304 305 306 306 306 305 305 306 306 306 306 305 305 305 307 307 307 306 307 307 306 307 308 309
298 299 300 301 302 303 306 305 304 303 303 302 303 304 304 303 303 303 304 304 303 301 300 300 300 301 301 303 303 303 303 303 304 305 306 306 305 304 305 305 304 304 305 303 304 306 307 307 307 307 307 306 306 304
298 299 299 300 300 302 303 304 303 302 302 302 305 305 303 302 301 301 301 300 300 299 299 299 300 300 300 301 302 303 302 302 302 303 305 304 304 301 302 302 303 303 304 304 303 303 302 303 304 304 304 303 304 303
298 298 300 302 304 303 303 302 302 301 301 301 301 302 302 302 301 300 300 300 299 299 299 299 299 299 299 299 302 302 302 301 300 300 300 301 300 300 300 300 300 300 301 302 302 302 301 301 301 302 302 302 303 303
299 299 299 301 302 302 301 301 300 300 300 301 301 301 300 300 300 300 300 300 300 300 300 299 298 299 301 302 301 302 301 300 299 299 299 298 298 298 298 298 299 299 299 300 299 298 300 297 297 298 299 299 300 300
299 300 301 302 303 301 301 301 300 300 300 300 301 300 300 300 300 300 300 300 300 300 299 298 299 300 300 300 299 299 298 298 296 296 296 297 297 296 296 297 297 298 298 297 296 294 295 296 296 296 297 297 297 297
299 299 299 300 302 301 300 300 300 300 300 301 300 300 300 299 300 300 300 299 299 299 299 299 298 297 297 297 296 296 296 296 295 295 295 295 294 293 295 295 296 297 297 296 295 294 293 292 292 292 292 293 293 293
Wind_Speed
29 28 27 26 26 28 29 29 30 30 29 25 21 19 14 12 11 10 12 11 8 7 25 19 15 12 13 13 3 13 10 11 6 8 5 5 4 6 7 15 10 14 15 12 15 13 11 13 18 20 6 9 8 21
28 28 27 27 27 28 30 31 31 31 29 25 20 17 14 13 11 15 14 15 10 13 23 27 22 18 19 14 5 7 10 10 9 5 7 4 6 3 9 6 10 6 3 9 8 11 3 8 10 13 13 10 9 21
28 28 28 28 29 29 30 31 31 31 29 24 19 16 14 14 12 14 17 16 16 10 22 9 11 10 7 12 10 4 3 7 7 9 5 3 4 1 2 7 9 6 13 6 8 17 14 14 11 13 14 11 11 15
28 29 30 30 30 29 31 31 32 33 31 26 20 17 16 15 15 16 16 15 12 10 5 10 5 4 6 7 12 9 8 11 13 13 5 3 3 9 6 9 9 10 10 13 12 10 11 3 10 10 15 13 15 12
29 31 32 31 31 31 31 32 34 35 32 27 22 19 16 15 13 13 15 10 6 8 7 17 17 5 4 7 9 10 10 11 13 9 5 7 9 6 5 5 10 10 4 4 4 22 16 15 21 34 21 7 10 14
30 33 33 32 31 31 31 33 36 36 31 28 24 20 15 11 10 9 4 1 7 12 7 5 10 7 8 7 9 12 14 15 16 15 10 6 11 2 2 7 11 13 23 19 14 22 29 33 8 15 24 7 2 13
32 33 35 33 31 31 32 36 38 35 33 30 21 14 10 8 6 6 5 9 15 10 3 5 5 5 11 10 14 14 14 16 17 19 12 15 13 10 7 12 14 15 20 17 18 27 31 30 11 10 30 13 14 5
33 34 35 33 31 31 34 38 39 33 33 22 15 9 4 4 3 5 7 8 15 6 4 3 4 5 5 6 6 7 10 12 14 18 20 10 16 15 11 16 20 21 21 23 20 27 30 35 34 9 20 9 5 5
33 33 35 34 31 29 36 38 35 32 29 18 8 7 5 5 3 6 17 11 2 5 4 3 3 4 7 5 4 4 3 3 7 9 11 11 11 11 15 19 26 23 19 22 25 27 33 30 30 26 17 10 7 5
33 33 35 35 29 27 35 37 32 30 24 16 12 4 3 7 17 6 3 1 4 5 6 5 4 5 6 1 3 4 5 3 3 7 14 11 13 26 32 29 28 23 21 22 25 24 26 26 23 32 19 16 9 8
34 33 33 32 25 29 33 34 30 29 18 12 8 5 12 9 5 2 4 3 3 3 5 7 11 10 6 3 2 3 3 3 3 3 3 4 11 13 29 34 31 28 31 24 23 23 27 24 24 24 24 17 14 12
33 32 31 28 27 29 33 31 28 25 12 11 10 8 8 4 2 4 5 3 2 5 10 11 20 20 2 5 1 1 2 3 5 10 3 3 6 20 19 24 30 30 31 28 23 25 19 21 24 24 20 16 16 18
32 32 30 25 28 31 32 29 22 18 14 6 5 5 7 4 6 6 7 4 6 11 14 23 12 10 2 2 1 1 3 4 9 3 3 3 14 22 19 21 11 20 27 28 25 26 22 23 23 26 31 27 21 16
32 31 27 21 31 34 32 23 19 13 7 4 7 6 5 3 3 4 6 8 9 10 21 20 8 2 3 0 1 2 1 2 2 3 4 5 22 23 19 16 14 14 16 15 24 27 28 27 28 29 30 32 26 27
33 29 17 24 34 30 26 17 11 8 6 4 4 4 3 5 14 11 15 17 17 19 17 9 2 6 5 3 3 3 6 5 4 4 4 11 23 15 20 18 19 14 9 6 9 18 21 28 29 30 31 33 36 36
32 27 12 28 28 26 21 14 5 5 5 3 3 4 13 11 13 15 16 18 22 19 16 9 4 4 4 4 4 4 8 4 4 3 24 16 4 13 20 21 20 20 13 3 7 10 24 30 38 34 35 39 46 44
30 17 27 29 29 26 11 10 5 2 3 4 5 6 7 11 14 17 17 17 19 14 6 4 5 4 3 5 5 3 4 5 16 22 25 8 7 8 8 8 13 32 26 18 0 10 12 18 24 35 23 16 14 23
29 30 27 26 26 26 8 4 4 3 3 8 5 12 10 11 9 11 14 17 14 17 12 2 2 4 3 4 4 3 6 12 19 27 20 19 12 8 12 14 18 14 26 26 20 18 28 20 12 17 19 11 12 21
30 29 24 17 22 19 5 3 2 4 5 11 10 9 13 10 9 10 12 13 11 13 7 5 3 3 1 3 7 10 11 9 11 16 21 20 18 23 14 15 11 21 20 21 25 32 29 24 23 20 21 21 16 18
26 24 12 15 14 4 5 5 4 5 4 7 15 9 12 10 11 6 6 10 10 8 6 4 3 8 8 5 7 11 15 17 11 15 14 15 13 15 19 23 20 16 21 20 21 26 21 19 21 24 21 21 22 21
25 7 13 10 8 10 6 7 6 4 6 7 11 13 11 10 13 10 8 3 6 2 1 6 7 9 9 4 3 14 13 15 14 17 15 18 19 22 21 22 20 21 20 21 22 19 19 16 14 16 19 21 18 14
19 14 18 5 5 5 7 9 7 7 10 14 14 12 10 6 14 12 7 4 5 6 5 9 10 12 14 17 5 6 9 13 12 12 16 16 17 19 21 23 23 22 25 22 19 22 19 17 18 18 18 15 18 18
11 9 7 5 6 5 8 9 6 6 3 4 6 5 4 5 11 10 1 8 6 5 4 5 9 11 14 16 15 16 12 11 8 11 11 14 16 15 15 16 18 20 23 21 20 23 20 23 22 19 18 17 19 17
10 5 5 5 10 5 5 5 6 4 5 2 3 4 4 6 10 3 7 11 4 4 4 3 10 6 8 8 8 10 13 13 14 12 11 11 10 12 14 14 15 20 17 20 18 19 20 18 15 16 18 17 15 15
6 7 6 7 7 7 4 3 5 5 4 6 4 4 4 5 2 4 8 13 3 9 1 5 9 10 9 8 4 6 12 10 10 7 12 12 8 7 9 11 13 15 15 16 18 18 18 17 17 17 17 19 20 19
7 7 8 8 6 6 7 4 6 7 6 6 4 4 3 3 3 5 6 9 1 5 2 4 5 7 9 8 8 8 8 10 10 9 8 10 9 10 10 10 10 11 13 13 14 18 15 16 15 13 15 18 19 16
6 7 12 14 14 10 5 9 10 4 3 5 3 4 2 3 5 7 1 4 1 3 4 6 6 8 6 9 9 9 9 9 7 5 6 6 6 5 6 6 6 5 9 9 11 13 15 16 15 14 13 13 18 18
12 8 12 16 16 18 12 9 4 4 5 8 6 6 5 6 4 1 3 3 6 5 8 10 12 13 12 6 6 9 11 10 10 8 8 6 3 4 3 3 6 10 9 12 11 8 10 10 12 12 12 9 8 8
10 11 14 12 20 14 14 9 9 14 14 15 9 8 11 16 15 12 9 9 11 13 13 13 11 10 11 13 7 4 6 9 8 7 6 5 4 4 6 5 5 6 6 8 11 11 7 6 4 6 6 5 5 9
15 19 14 14 13 11 18 13 16 17 16 19 21 17 16 16 14 10 11 12 14 14 13 11 12 14 17 15 9 9 9 2 3 4 5 5 4 3 3 5 5 5 5 4 4 6 6 4 2 4 4 4 4 5
9 15 18 19 15 15 18 21 21 20 19 19 16 15 14 17 17 15 14 14 11 10 9 11 10 10 8 8 5 1 2 1 3 3 4 3 5 5 6 6 5 5 4 3 4 1 1 5 4 3 3 3 3 3
15 19 14 12 14 17 16 17 19 20 22 20 21 21 20 20 17 8 4 7 8 10 7 5 3 3 3 3 2 1 2 2 4 5 4 5 5 5 1 4 3 2 2 2 2 2 1 2 2 1 1 2 4 5
15 17 16 13 8 3 10 12 12 14 15 14 18 20 22 23 16 3 4 1 3 3 4 3 3 3 3 4 3 4 6 9 9 10 8 7 6 3 5 3 2 3 5 5 1 5 6 5 5 4 5 5 5 5
Wind_Direction
352 355 357 357 358 358 357 354 351 349 350 349 349 355 355 2 354 340 322 294 279 273 290 287 292 300 284 300 300 312 314 244 225 227 207 192 246 342 303 302 315 243 181 209 221 228 221 221 220 212 151 242 244 197
348 350 353 353 353 353 351 350 349 350 350 350 343 343 340 344 344 339 329 336 308 270 277 291 286 274 278 259 262 312 335 339 11 292 219 246 248 106 343 312 244 281 56 255 225 213 233 291 241 141 163 228 229 190
345 344 347 346 345 347 347 347 348 347 346 345 341 332 324 321 326 332 321 333 328 286 307 316 279 252 227 211 230 290 359 315 318 351 326 335 328 278 207 265 323 282 8 308 357 271 229 237 261 185 202 206 171 176
345 343 343 342 341 344 344 344 346 345 340 336 334 328 324 315 304 317 315 314 324 309 283 315 311 267 231 217 230 259 280 295 300 300 291 284 270 303 282 250 273 301 337 328 306 316 306 233 308 182 174 182 192 190
345 343 342 341 339 341 342 343 345 344 340 332 327 322 314 313 317 315 311 295 337 340 310 305 301 307 289 264 257 257 264 278 282 274 247 264 266 270 262 297 265 269 315 304 340 333 329 292 348 331 211 170 187 179
345 343 341 343 342 341 343 343 345 345 340 332 326 320 313 303 311 337 316 71 5 331 316 312 321 333 332 280 269 262 255 256 272 271 280 278 287 199 299 269 261 272 272 260 280 293 310 321 355 292 285 146 142 191
343 342 340 341 343 342 342 343 346 346 341 337 335 332 325 313 308 276 281 304 308 327 273 285 301 310 332 294 291 285 271 246 245 264 265 271 245 224 256 259 275 288 277 272 261 289 290 301 266 276 313 159 109 118
342 340 338 338 341 342 341 343 346 348 346 348 356 359 16 5 306 299 291 315 323 292 264 277 286 331 350 334 316 319 288 275 261 260 260 256 258 242 240 257 267 265 260 265 267 271 262 277 294 269 274 323 261 180
343 341 338 337 339 341 341 342 347 350 350 352 3 353 5 8 293 328 301 310 267 252 289 260 287 312 335 11 299 281 256 264 266 245 242 256 257 237 241 243 246 253 263 255 256 251 263 247 258 263 273 276 320 335
343 341 338 337 339 343 342 342 350 353 357 10 357 286 327 340 309 336 305 217 221 222 232 266 289 293 298 272 293 284 217 253 261 257 254 239 248 259 260 254 259 263 247 234 242 249 268 274 266 244 262 276 277 290
342 342 340 338 340 345 343 345 352 354 360 354 337 322 312 324 323 308 287 251 228 243 235 294 317 301 281 242 231 293 317 303 262 271 277 235 245 254 250 255 251 246 258 250 235 246 237 255 250 269 252 260 264 254
340 343 339 337 338 345 347 346 349 360 350 344 335 325 322 303 315 300 309 288 283 326 329 336 331 326 316 180 161 242 274 272 263 340 242 250 2 357 334 315 240 239 245 248 234 228 254 260 255 269 273 263 269 264
336 341 336 332 339 345 346 343 346 351 351 333 327 319 332 315 12 337 334 353 322 324 321 327 323 322 11 109 140 216 240 255 331 269 259 60 341 329 334 316 315 233 237 247 245 234 226 244 250 263 273 274 272 272
333 339 334 335 341 340 338 338 341 360 360 337 336 328 3 359 299 336 315 321 296 283 314 322 312 291 297 59 248 278 298 283 270 293 337 330 328 335 324 331 320 311 295 277 242 241 242 236 238 243 240 257 268 274
332 338 324 335 330 333 333 338 349 8 334 335 342 323 350 319 302 2 352 354 349 346 349 349 345 338 28 1 12 324 332 336 349 306 294 297 327 334 357 14 21 20 354 318 265 255 255 243 236 241 238 237 242 245
331 339 314 320 329 339 333 339 349 327 345 294 292 312 334 3 341 3 353 352 349 357 10 17 10 7 0 348 342 12 325 333 298 290 304 326 35 48 48 41 32 23 26 344 295 288 253 247 236 233 227 236 236 235
327 323 323 333 329 338 327 340 323 303 286 293 275 304 305 337 6 343 352 354 348 348 28 35 16 355 337 337 348 2 335 292 303 340 351 341 18 12 341 348 18 37 30 37 121 344 312 256 236 234 204 213 219 144
319 325 327 331 329 339 341 278 296 276 265 264 281 315 345 330 337 345 356 358 349 343 359 65 74 9 16 337 323 301 277 313 344 347 357 39 43 22 31 18 31 30 30 35 29 3 62 58 105 118 115 145 67 97
317 320 321 327 334 328 293 275 274 273 267 311 299 321 320 325 332 325 341 349 352 342 359 13 9 356 335 256 336 341 319 328 334 4 4 21 31 42 41 29 44 42 36 30 24 35 44 41 61 72 74 87 82 78
318 318 314 334 326 296 279 268 251 241 268 277 301 294 300 309 314 323 312 335 4 359 24 358 345 325 352 356 350 337 334 328 357 3 20 26 34 40 43 44 47 47 46 44 43 39 36 41 52 63 74 82 80 82
325 306 309 331 285 247 274 276 268 276 272 262 292 302 308 317 315 315 328 25 348 294 25 299 356 327 341 327 75 9 343 345 4 34 11 16 35 47 32 38 37 38 48 52 51 49 47 43 52 66 61 66 71 75
315 296 309 312 251 249 253 243 239 274 271 265 277 287 296 288 272 284 305 323 164 274 322 330 328 337 353 346 9 350 357 353 11 15 17 32 31 31 44 40 30 35 42 41 44 52 47 49 54 60 65 71 76 71
333 315 289 243 237 244 260 251 245 260 271 281 323 313 288 277 287 292 355 283 214 244 284 324 321 353 335 315 334 350 5 358 353 1 21 20 23 37 39 33 38 39 31 40 36 44 45 40 50 56 65 71 74 77
301 264 249 237 212 247 242 233 219 232 279 302 264 266 283 259 286 294 278 250 275 267 268 335 320 339 1 346 340 331 9 352 344 359 12 35 6 24 39 43 32 32 39 33 32 34 43 52 48 56 60 65 72 80
269 241 222 239 243 207 235 219 213 212 241 213 245 257 269 289 303 278 286 279 149 251 271 3 325 323 332 342 350 344 335 351 19 339 345 12 34 7 38 32 43 35 30 30 31 32 49 47 42 46 44 55 53 55
233 231 212 215 225 208 203 210 205 221 225 222 232 247 255 270 233 251 252 270 197 303 32 11 320 327 312 332 355 333 332 345 350 356 349 356 5 5 6 8 22 24 16 18 24 36 40 50 48 51 47 45 44 61
238 239 222 230 238 225 226 231 236 212 190 213 233 245 257 247 247 241 39 91 343 316 344 323 316 303 304 305 304 316 318 315 319 332 333 339 351 1 7 13 19 22 18 22 22 30 32 41 53 61 65 54 50 59
235 244 230 232 241 249 241 240 209 225 227 224 221 194 198 206 245 357 343 227 240 271 298 302 297 291 289 269 281 305 306 299 298 289 282 290 336 352 29 33 37 36 26 26 38 31 36 38 55 64 61 56 37 44
229 228 237 234 237 235 232 219 225 232 234 231 209 216 239 253 266 281 270 267 278 287 288 283 290 297 290 265 256 264 299 308 317 331 3 28 307 14 14 22 30 35 34 358 3 7 10 27 53 27 34 37 60 49
240 230 235 234 217 222 225 221 234 243 247 244 250 249 239 235 250 270 278 276 275 278 284 287 294 300 295 293 264 259 239 326 332 347 17 23 29 14 358 352 7 17 17 16 15 8 346 324 352 349 359 16 29 32
240 213 222 225 230 236 242 247 258 255 249 254 253 259 257 260 261 259 260 267 273 278 279 291 307 323 333 315 317 241 169 120 27 4 278 291 329 338 346 356 351 359 7 19 6 45 309 313 341 353 10 20 23 23
234 232 217 212 227 243 255 265 263 252 248 244 240 246 257 260 256 284 307 257 252 272 277 274 320 17 50 55 67 95 192 122 216 280 273 235 226 264 320 357 343 0 9 18 6 338 285 303 314 329 8 37 48 49
247 256 246 247 238 275 249 249 255 263 273 283 280 278 277 279 277 177 162 125 153 108 55 87 116 140 151 130 145 168 208 239 271 292 288 286 284 239 166 151 68 90 107 123 141 83 77 81 95 97 93 86 75 64